Regional Weather Roundup
Issued by NWS Charleston, WV

Home | Current Version | Previous Version | Text Only | Print | Product List | Glossary Off
Versions: 1 2 3 4 5 6 7 8 9 10 11 12 13 14 15 16 17 18 19 20 21 22 23 24 25 26 27 28 29 30 31 32 33 34 35 36 37 38 39 40 41 42 43 44 45 46 47 48 49 50

000
ASUS41 KRLX 150910
RWRRLX
West Virginia Regional Weather Roundup
National Weather Service Charleston WV
500 AM EDT MON SEP 15 2014

Note: "fair" indicates few or no clouds below 12,000 feet with no
significant weather and/or obstructions to visibility.

WVZ003-151000-
Northern Panhandle of West Virginia

CITY           SKY/WX    TMP DP  RH WIND       PRES   REMARKS
WHEELING       FOG       46  44  93 CALM      30.23S VSB 3/4
$$

WVZ009-151000-
Northwest West Virginia

CITY           SKY/WX    TMP DP  RH WIND       PRES   REMARKS
PARKERSBURG    CLOUDY    45  45 100 CALM      30.25S
$$

WVZ006-151000-
Western West Virginia

CITY           SKY/WX    TMP DP  RH WIND       PRES   REMARKS
HUNTINGTON     FOG       49  49 100 CALM      30.20F VSB<1/4
$$

WVZ015-151000-
West Central West Virginia

CITY           SKY/WX    TMP DP  RH WIND       PRES   REMARKS
CHARLESTON     FOG       51  51 100 CALM      30.22R VSB 1/2
$$

WVZ031-151000-
North Central West Virginia

CITY           SKY/WX    TMP DP  RH WIND       PRES   REMARKS
CLARKSBURG     FOG       49  48  97 CALM      30.23S VSB 1/4
MORGANTOWN     FOG       46  43  89 CALM      30.24S VSB 1
$$

WVZ035-042-045-151000-
South Central West Virginia

CITY           SKY/WX    TMP DP  RH WIND       PRES   REMARKS
BECKLEY        CLOUDY    57  56  96 CALM      30.24S FOG
BLUEFIELD      FOG       57  54  89 N3        30.26R VSB 3/4
LEWISBURG      FOG       53  51  94 CALM      30.24R VSB 1/4
$$

WVZ047-151000-
Northern Mountains of West Virginia

CITY           SKY/WX    TMP DP  RH WIND       PRES   REMARKS
ELKINS         CLOUDY    52  51  97 CALM      30.25S FOG
$$

WVZ052-151000-
Eastern Panhandle of West Virginia

CITY           SKY/WX    TMP DP  RH WIND       PRES   REMARKS
MARTINSBURG    CLEAR     48  44  86 CALM      30.23S
PETERSBURG     FOG       51  49  93 CALM      30.25R VSB 1/4
$$



USA.gov is the U.S. government's official web portal to all federal, state and local government web resources and services.